{"data":{"norad_id":65998,"intl_designator":"2025-231D","name":"HULIANWANG DIGUI-90","alt_names":[],"object_type":"PAYLOAD","status":"ACTIVE","operator":null,"country":"PRC","launch_date":"2025-10-16","launch_site_code":"WSC","launch_vehicle":null,"mission":null,"orbit_class":"UNKNOWN","rcs_meters":null,"size_class":null,"mass_kg":null,"dimensions":null,"purposes":[],"wikipedia_slug":null,"has_3d_model":false,"image_url":null,"decayed_at":null,"tle_current":{"epoch":"2026-05-24T23:50:12.110208Z","epoch_age_seconds":72471,"freshness":"FRESH","line1":"1 65998U 25231D   26144.99319572 -.00000103  00000+0  46385-4 0  9996","line2":"2 65998  49.9997 258.8779 0000940 149.8543 210.2384 13.29325685 29802","mean_motion":13.29325685,"eccentricity":9.4e-5,"inclination_deg":49.9997,"raan_deg":258.8779,"arg_perigee_deg":149.8543,"mean_anomaly_deg":210.2384,"bstar":4.6385e-5,"rev_number":2980,"period_min":108.32559817724,"perigee_km":1148.6001811928,"apogee_km":1150.0153408079,"semimajor_km":7527.4447610004,"source":"CELESTRAK","updated_at":"2026-05-25T13:38:05.883678Z"}}}